[[{"header":{"parameterUnit":"m.s-1","parameterCategory":1,"la1":30.2991,"la2":30.254,"lo1":-89.0895,"lo2":-89.0444,"dy":0.0017,"dx":0.0017,"nx":28,"ny":28,"refTime":"2025-06-14T03:00:00:Z","depth":0,"parameterNumber":2,"parameterNumberName":"U-component_of_WINDS"},"data":[0,0,0,0,0,0,0,0,0,0,0,0,0,0,0,0,0,0,0,0,0,0,0,0,0,0,0,0,0,0,0,0,0,0,0,0,0,0,0,0,0,0,0,0,0,0,0,0,0,0,0,0,0,0,0,0,0,0,2.4644,2.4643,0,2.4602,2.4601,2.4601,2.449,2.4488,2.4486,2.4483,2.4441,2.4442,2.4443,0,0,0,0,0,0,0,0,0,0,0,0,0,2.4628,2.4629,2.4644,2.4643,2.4643,2.4602,2.4601,2.4601,2.4491,2.4488,2.4485,2.4482,2.4441,2.4442,2.4443,0,0,0,0,0,0,0,0,0,0,0,0,0,2.4615,2.4629,2.4644,2.4583,2.4577,2.4602,2.4601,2.4601,2.4491,2.4488,2.4484,2.4481,2.444,2.4442,2.4443,2.4524,0,0,2.4448,2.4449,0,0,0,0,0,0,0,0,2.4616,2.4616,2.4593,2.4587,2.4581,2.4548,2.458,2.4575,2.4492,2.4524,2.4483,2.4479,2.4479,2.4477,2.4477,2.4522,2.452,2.4448,2.4449,2.445,2.445,0,0,0,0,0,0,0,2.4617,2.4617,2.4627,2.4592,2.4585,2.4557,2.4552,2.4579,2.4522,2.4521,2.4513,2.4509,2.4475,2.4476,2.4476,2.4519,2.4448,2.445,2.4451,2.4451,2.4625,2.4628,0,0,0,0,0,0,2.4627,2.4619,2.4629,2.4626,2.459,2.4561,2.4554,2.4562,2.4521,2.4512,2.4512,2.4504,2.4475,2.4474,2.4474,2.4562,2.445,2.4451,2.4452,2.4621,2.4625,2.4629,0,0,0,0,0,0,2.4627,2.4629,2.463,2.462,2.4618,2.4565,2.4574,2.4563,2.4563,2.4515,2.4504,2.4524,2.4472,2.4471,2.4511,2.456,2.4452,2.4454,2.4617,2.4622,2.4627,2.4743,0,0,0,0,0,0,2.4627,2.463,2.466,2.4622,2.4619,2.467,2.4577,2.4565,2.4566,2.4555,2.4523,2.4514,2.4469,2.451,2.4513,2.456,2.4455,2.4612,2.4619,2.4626,2.4735,2.4752,2.4766,0,0,0,0,0,2.4627,2.4695,2.4662,2.4664,2.4656,2.4673,2.4671,2.4619,2.4571,2.46,2.4569,2.4515,2.4555,2.4515,2.4518,2.4566,2.4609,2.4617,2.4625,2.4727,2.4748,2.4766,0,0,0,0,0,0,2.4741,2.4689,2.4652,2.471,2.4696,2.4654,2.469,2.4643,2.4643,2.4633,2.4568,2.4561,2.461,2.4592,2.4549,2.464,2.4572,2.4582,2.4649,2.4669,2.4684,2.4686,2.4456,0,0,0,0,0,2.4773,2.4791,2.4744,2.48,2.4795,2.4744,2.4749,2.471,2.4693,2.4687,2.4658,2.4645,2.4653,2.466,2.4666,2.4732,2.4722,2.4767,2.4783,2.4796,2.4804,2.4834,2.4853,2.4656,2.4656,2.4656,0,0,2.4839,2.4813,2.4828,2.4822,2.4807,2.4826,2.474,2.4764,2.4777,2.4691,2.4725,2.4705,2.4684,2.4737,2.4759,2.4724,2.4856,2.4806,2.4817,2.4818,2.4844,2.4863,2.488,2.4662,2.4661,2.466,0,0,2.4969,2.4952,2.4994,2.4981,2.4959,2.4924,2.4935,2.4899,2.4881,2.4915,2.485,2.4865,2.4882,2.4869,2.4865,2.4989,2.4938,2.4993,2.5075,2.5105,2.5121,2.5134,2.5175,2.5191,2.5001,2.5002,2.5002,0,2.5053,2.5079,2.5023,2.505,2.5048,2.4971,2.5012,2.5002,2.4984,2.4984,2.4945,2.4963,2.4945,2.4992,2.5022,2.5022,2.503,2.4995,2.5123,2.5136,2.5148,2.5186,2.5202,2.5008,2.5007,2.5007,2.5006,0,2.5183,2.5202,2.5239,2.5221,2.5224,2.526,2.5207,2.5217,2.5177,2.5147,2.5181,2.5156,2.5154,2.5163,2.5125,2.5204,2.5182,2.5135,2.5065,2.5174,2.5208,2.5223,2.5018,2.5015,2.5013,2.5012,0,0,2.5382,2.5332,2.5346,2.5336,2.5306,2.5319,2.535,2.5347,2.5355,2.5346,2.5368,2.5384,2.5339,2.5334,2.5295,2.5322,2.5417,2.527,2.5268,2.5296,2.5499,2.5533,2.5551,2.5384,2.5387,2.5389,2.55,0,2.5501,2.555,2.5499,2.5558,2.5574,2.55,2.5526,2.551,2.5483,2.5491,2.546,2.5471,2.5413,2.5409,2.5433,2.5401,2.5457,2.5393,2.5403,2.5404,2.5407,2.557,2.5606,2.5711,2.5513,2.5516,2.5517,0,2.5646,2.5641,2.5702,2.5665,2.5669,2.5694,2.5686,2.5696,2.5676,2.5654,2.5648,2.56,2.5626,2.5561,2.5595,2.5552,2.5554,2.5539,2.5542,2.5538,2.5465,2.5568,2.5744,2.5759,2.5539,2.5537,2.5535,0,2.5781,2.579,2.5826,2.582,2.578,2.5798,2.5782,2.5758,2.5759,2.5753,2.5752,2.575,2.5748,2.5747,2.5698,2.5655,2.5738,2.5669,2.5718,2.5719,2.5736,2.5735,2.5912,2.5743,2.5743,2.5743,2.5742,0,2.5917,2.5956,2.5885,2.5908,2.5949,2.589,2.5933,2.5909,2.5888,2.5904,2.5841,2.5857,2.5794,2.5803,2.5765,2.5798,2.5798,2.5779,2.5768,2.5783,2.5785,2.5781,2.5771,2.5747,2.5746,2.5745,2.5744,0,2.6073,2.6028,2.6062,2.6021,2.6011,2.6043,2.6007,2.6025,2.5993,2.6013,2.6015,2.5965,2.5971,2.5924,2.5923,2.5897,2.5946,2.5925,2.5953,2.5945,2.5996,2.599,2.6174,2.6193,2.6015,2.6017,2.6018,0,2.6161,2.6189,2.615,2.6156,2.6143,2.6153,2.6153,2.6097,2.61,2.6078,2.6098,2.61,2.6098,2.6113,2.6076,2.6074,2.605,2.6114,2.6049,2.6062,2.6046,2.6044,2.6045,2.6127,2.6129,2.6131,2.6132,0,2.6322,2.6297,2.63,2.6295,2.6296,2.629,2.6279,2.6287,2.6226,2.6232,2.6238,2.6237,2.6234,2.6236,2.6227,2.6209,2.616,2.6154,2.6164,2.6178,2.6192,2.6182,2.5987,2.6149,2.6147,2.6146,2.6145,2.6145,2.6444,2.6464,2.6439,2.6443,2.6429,2.642,2.6434,2.6404,2.6408,2.6401,2.6368,2.638,2.6357,2.6339,2.6327,2.6334,2.6303,2.6319,2.6323,2.6327,2.6334,2.6194,2.6333,2.6332,2.6332,2.6331,2.6331,0,2.6597,2.6578,2.6583,2.6568,2.6572,2.6526,2.6511,2.6516,2.6527,2.651,2.651,2.6515,2.6517,2.648,2.6476,2.6489,2.6466,2.649,2.6487,2.6483,2.6364,2.6354,2.6508,2.6508,2.6508,2.6508,2.6508,2.6508,2.6677,2.6708,2.6681,2.6704,2.6684,2.6694,2.6689,2.668,2.6666,2.6675,2.6675,2.6652,2.6626,2.662,2.6619,2.6608,2.6608,2.6638,2.662,2.6509,2.6492,2.6475,2.6465,2.664,2.664,2.6737,2.6738,2.6738]},{"header":{"parameterUnit":"m.s-1","parameterCategory":1,"la1":30.2991,"la2":30.254,"lo1":-89.0895,"lo2":-89.0444,"dy":0.0017,"dx":0.0017,"nx":28,"ny":28,"refTime":"2025-06-14T03:00:00:Z","depth":0,"parameterNumber":3,"parameterNumberName":"V-component_of_WINDS"},"data":[0,0,0,0,0,0,0,0,0,0,0,0,0,0,0,0,0,0,0,0,0,0,0,0,0,0,0,0,0,0,0,0,0,0,0,0,0,0,0,0,0,0,0,0,0,0,0,0,0,0,0,0,0,0,0,0,0,0,2.7001,2.7002,0,2.7062,2.7062,2.7063,2.703,2.7029,2.7027,2.7025,2.7084,2.7087,2.709,0,0,0,0,0,0,0,0,0,0,0,0,0,2.6851,2.6854,2.7001,2.7002,2.7002,2.7062,2.7062,2.7063,2.703,2.7028,2.7026,2.7025,2.7083,2.7087,2.7091,0,0,0,0,0,0,0,0,0,0,0,0,0,2.6914,2.6855,2.7001,2.6993,2.6993,2.7061,2.7062,2.7063,2.7031,2.7028,2.7026,2.7024,2.7082,2.7086,2.7091,2.7169,0,0,2.7105,2.7107,0,0,0,0,0,0,0,0,2.6911,2.692,2.6994,2.6994,2.6994,2.7036,2.7031,2.7099,2.7032,2.7016,2.7025,2.7022,2.707,2.7075,2.7092,2.7172,2.7174,2.7106,2.7108,2.711,2.7112,0,0,0,0,0,0,0,2.6906,2.6917,2.7025,2.6995,2.6995,2.6985,2.6991,2.7044,2.7056,2.7018,2.7015,2.7023,2.7069,2.7088,2.7093,2.7175,2.7106,2.711,2.7113,2.7114,2.7319,2.7322,0,0,0,0,0,0,2.6903,2.6913,2.7023,2.7027,2.6945,2.699,2.6997,2.7025,2.7056,2.7058,2.7025,2.7021,2.7081,2.7088,2.7095,2.7187,2.711,2.7115,2.7117,2.7316,2.732,2.7322,0,0,0,0,0,0,2.69,2.6913,2.702,2.6969,2.6982,2.6995,2.7027,2.7027,2.7046,2.7061,2.7063,2.7042,2.7079,2.7089,2.7151,2.7188,2.7117,2.7121,2.7313,2.7317,2.7321,2.7372,0,0,0,0,0,0,2.6896,2.6912,2.6943,2.697,2.6985,2.7077,2.7029,2.703,2.7054,2.705,2.7077,2.708,2.7078,2.7144,2.7155,2.7194,2.7125,2.731,2.7315,2.732,2.7367,2.7377,2.7386,0,0,0,0,0,2.689,2.6955,2.6945,2.6959,2.7025,2.7079,2.7087,2.7085,2.7057,2.7088,2.7097,2.7079,2.7183,2.715,2.7163,2.7203,2.7307,2.7314,2.7319,2.7363,2.7375,2.7386,0,0,0,0,0,0,2.6932,2.6959,2.6948,2.7024,2.7049,2.7073,2.7112,2.7099,2.7132,2.7126,2.7121,2.7128,2.7192,2.7204,2.7167,2.7279,2.724,2.7249,2.7269,2.7281,2.729,2.7286,2.7129,0,0,0,0,0,2.695,2.6993,2.7013,2.7078,2.7092,2.71,2.7123,2.7119,2.7145,2.7155,2.717,2.7194,2.7232,2.7257,2.7293,2.7368,2.7373,2.7402,2.7411,2.7419,2.7427,2.7465,2.7478,2.7342,2.7342,2.7342,0,0,2.6987,2.7007,2.7035,2.7087,2.7106,2.7149,2.7109,2.7157,2.7188,2.7162,2.7222,2.7233,2.7259,2.7328,2.7359,2.734,2.7465,2.7427,2.7433,2.7436,2.7472,2.7485,2.7497,2.7346,2.7345,2.7345,0,0,2.7077,2.7098,2.7153,2.7173,2.7203,2.7207,2.722,2.7246,2.7253,2.7312,2.7293,2.7329,2.7395,2.7415,2.7433,2.7528,2.7511,2.7539,2.7589,2.7626,2.7637,2.7646,2.7678,2.769,2.7547,2.7547,2.7547,0,2.712,2.7185,2.7183,2.7231,2.7254,2.7233,2.7287,2.7306,2.7346,2.7361,2.7339,2.742,2.7437,2.7509,2.7532,2.7548,2.7561,2.7536,2.7636,2.7645,2.7654,2.7684,2.7697,2.755,2.755,2.7549,2.7549,0,2.7235,2.728,2.7321,2.736,2.7387,2.7439,2.7441,2.7469,2.7462,2.7468,2.7527,2.7546,2.7585,2.7601,2.7595,2.7671,2.7658,2.7637,2.7598,2.767,2.7699,2.771,2.7555,2.7553,2.7553,2.7552,0,0,2.7354,2.739,2.7405,2.7421,2.7452,2.7486,2.7535,2.7573,2.7595,2.7623,2.7662,2.7718,2.7697,2.7718,2.7713,2.7746,2.7818,2.772,2.772,2.7736,2.79,2.7916,2.793,2.7807,2.7809,2.7811,2.7898,0,2.7445,2.7533,2.753,2.7611,2.7651,2.7631,2.7673,2.7695,2.7701,2.7735,2.7741,2.778,2.7751,2.7763,2.7795,2.7802,2.785,2.7796,2.7842,2.7843,2.7835,2.7945,2.7962,2.8044,2.7909,2.7911,2.7912,0,2.7564,2.7595,2.768,2.7702,2.7719,2.7757,2.7791,2.7824,2.7847,2.7849,2.7872,2.7861,2.7908,2.7868,2.7932,2.7895,2.7914,2.792,2.7923,2.7927,2.7882,2.7951,2.807,2.8082,2.793,2.7929,2.7927,0,2.764,2.7704,2.7762,2.7777,2.7805,2.7832,2.7844,2.7865,2.7888,2.7916,2.793,2.7964,2.7982,2.8007,2.8005,2.7976,2.8069,2.803,2.8071,2.8071,2.8091,2.809,2.8214,2.8105,2.8104,2.8104,2.8104,0,2.7742,2.7794,2.7796,2.7832,2.7889,2.7885,2.794,2.795,2.7968,2.8004,2.7988,2.8022,2.8017,2.805,2.8049,2.8101,2.8109,2.8111,2.811,2.8112,2.8112,2.8124,2.8118,2.8107,2.8107,2.8106,2.8105,0,2.7837,2.7841,2.7903,2.7924,2.793,2.7971,2.7988,2.802,2.8025,2.807,2.808,2.8086,2.8124,2.8125,2.8168,2.8167,2.823,2.8223,2.8222,2.8221,2.8261,2.8257,2.8397,2.8414,2.8294,2.8296,2.8296,0,2.7902,2.7941,2.7966,2.7989,2.8003,2.8041,2.8063,2.8059,2.8083,2.8111,2.814,2.8177,2.8206,2.8266,2.8274,2.8306,2.8299,2.8346,2.8304,2.8304,2.8298,2.8296,2.8299,2.8354,2.8355,2.8356,2.8357,0,2.8015,2.8014,2.8048,2.8082,2.8109,2.8135,2.8159,2.8179,2.8177,2.8204,2.8243,2.8266,2.8309,2.8345,2.8376,2.8386,2.8371,2.837,2.8381,2.8384,2.8381,2.8382,2.8244,2.8367,2.8366,2.8365,2.8365,2.8364,2.8096,2.8129,2.8151,2.8188,2.8206,2.8229,2.826,2.8268,2.83,2.8336,2.8331,2.8374,2.8393,2.8433,2.8447,2.8479,2.8462,2.8479,2.8483,2.8487,2.849,2.8377,2.8484,2.8484,2.8484,2.8484,2.8483,0,2.8207,2.822,2.8254,2.8288,2.8317,2.83,2.8326,2.835,2.8388,2.8408,2.8437,2.848,2.8514,2.8524,2.8556,2.8579,2.8573,2.8588,2.8586,2.8588,2.8504,2.8491,2.8592,2.8592,2.8592,2.8592,2.8592,2.8592,2.8268,2.8323,2.8325,2.8387,2.8399,2.8441,2.8457,2.8477,2.8492,2.8542,2.857,2.8576,2.8591,2.8624,2.8654,2.8655,2.8667,2.8685,2.8684,2.8605,2.8594,2.8584,2.8571,2.8688,2.8688,2.8765,2.8765,2.8766]}]]